Terminal Aerodrome Forecast
Issued by NWS

Current Version | Previous Version | Text Only | Print | Product List | Glossary On
Versions: 1 2 3 4 5 6 7 8 9 10 11 12 13 14 15 16 17 18 19 20 21 22
000
FTUS46 KLOX 221151
TAFLGB
TAF
KLGB 221151Z 2212/2312 27008KT P6SM BKN070
     FM221330 27008KT P6SM VCSH BKN025 OVC050
     FM221800 22008KT P6SM VCSH SCT025 OVC035
     FM222100 25015G20KT P6SM BKN040
     FM230400 27010KT P6SM BKN035
     FM230700 VRB04KT P6SM OVC015=

USA.gov is the U.S. government's official web portal to all federal, state and local government web resources and services.